Weather in Kasansai

Uzbekistan     41°15′16″N   71°32′40″E
temp.,
°C
wind,
m/s
gust,
m/s
humid.,
%
clouds,
%
prec.,
mm/h
press.,
hPa
HPBL,
m
14 april, wed
wed1423:00+12n586788 1.0 1022352
02:00+11n356423 0.0 102080
05:00+10nnw22595 0.0 102016
08:00+14n224646 0.0 1020278
11:00+18e12384 0.0 10171378
14:00+20ese11310 0.0 10151700
17:00+21se22280 0.0 10131700
20:00+17w114032 0.0 101316
15 april, thu
thu1523:00+15nnw33455 0.0 101332
02:00+14nnw32420 0.0 101220
05:00+13nnw2239100 0.0 101316
08:00+16nne1133100 0.0 1014217
11:00+20s22307 0.0 10131105
14:00+22s322983 0.0 10121740
17:00+22ssw4431100 0.0 10111458
20:00+17sw364588 0.0 1013152
16 april, fri
fri1623:00+16n3351100 0.2 101334
02:00+14nne33570 0.1 101343
05:00+13nne32552 0.1 101419
08:00+16ene23456 0.0 1015385
11:00+19ese3237100 0.0 10151106
14:00+21sse2229100 0.0 10131806
17:00+21ssw4429100 0.0 10131487
20:00+17sse12370 0.0 101414
17 april, sat
sat1723:00+15n33450 0.0 101437
02:00+14n44460 0.0 101447
05:00+13n33455 0.0 101426
08:00+17ne2338100 0.0 1015386
11:00+20ese322710 0.0 10141308
14:00+22se321974 0.0 10122065
17:00+22se2219100 0.0 10112463
20:00+18sw2229100 0.0 101212
18 april, sun
sun1823:00+16nnw2240100 0.0 101320
02:00+15ne3440100 0.0 1013111
05:00+14ne3648100 0.0 1016153
08:00+15ene5647100 0.1 1018700
11:00+18e3334100 0.1 10171509
14:00+19wsw5533100 0.1 10162160
17:00+18e2434100 0.3 10161374
20:00+13nne796163 0.4 1019287